[[{"header":{"parameterUnit":"m.s-1","parameterCategory":1,"la1":30.2991,"la2":30.254,"lo1":-89.0895,"lo2":-89.0444,"dy":0.0017,"dx":0.0017,"nx":28,"ny":28,"refTime":"2025-12-01T03:00:00:Z","depth":0,"parameterNumber":2,"parameterNumberName":"U-component_of_WINDS"},"data":[0,0,0,0,0,0,0,0,0,0,0,0,0,0,0,0,0,0,0,0,0,0,0,0,0,0,0,0,0,0,0,0,0,0,0,0,0,0,0,0,0,0,0,0,0,0,0,0,0,0,0,0,0,0,0,0,0,0,3.7504,3.7504,0,3.7522,3.7522,3.7523,3.7471,3.7469,3.7468,3.7466,3.7482,3.7484,3.7486,0,0,0,0,0,0,0,0,0,0,0,0,0,3.7422,3.7424,3.7504,3.7504,3.7504,3.7522,3.7522,3.7523,3.7471,3.7469,3.7467,3.7465,3.7482,3.7484,3.7486,0,0,0,0,0,0,0,0,0,0,0,0,0,3.7451,3.7424,3.7504,3.7481,3.7479,3.7522,3.7522,3.7523,3.7471,3.7469,3.7467,3.7464,3.7481,3.7484,3.7487,3.7552,0,0,3.7495,3.7497,0,0,0,0,0,0,0,0,3.7449,3.7454,3.7484,3.7482,3.748,3.7492,3.7499,3.7533,3.7472,3.7474,3.7466,3.7463,3.7487,3.749,3.7498,3.7553,3.7554,3.7496,3.7497,3.7499,3.75,0,0,0,0,0,0,0,3.7447,3.7452,3.7511,3.7484,3.7482,3.7469,3.747,3.7505,3.7494,3.7474,3.747,3.7473,3.7486,3.7496,3.7498,3.7554,3.7496,3.7498,3.75,3.7501,3.7665,3.7667,0,0,0,0,0,0,3.7448,3.7451,3.751,3.7511,3.7458,3.7472,3.7474,3.749,3.7493,3.7491,3.7475,3.7471,3.7492,3.7495,3.7499,3.7576,3.7499,3.7501,3.7503,3.7662,3.7665,3.7668,0,0,0,0,0,0,3.7447,3.7454,3.7509,3.748,3.7486,3.7476,3.7495,3.7492,3.7502,3.7494,3.7492,3.7487,3.749,3.7494,3.754,3.7576,3.7503,3.7505,3.7659,3.7663,3.7667,3.7732,0,0,0,0,0,0,3.7445,3.7454,3.7479,3.7481,3.7488,3.7551,3.7497,3.7494,3.7507,3.7501,3.7505,3.7503,3.7488,3.7536,3.7543,3.7579,3.7508,3.7656,3.7661,3.7666,3.7726,3.7737,3.7747,0,0,0,0,0,3.7442,3.7496,3.748,3.7488,3.7519,3.7553,3.7557,3.754,3.751,3.7535,3.7531,3.7503,3.7571,3.7541,3.7548,3.7586,3.7653,3.766,3.7665,3.7722,3.7735,3.7747,0,0,0,0,0,0,3.7496,3.7495,3.7479,3.7535,3.7545,3.7544,3.7575,3.7554,3.7572,3.7566,3.7542,3.7544,3.7594,3.7594,3.756,3.765,3.7607,3.7615,3.7648,3.766,3.7671,3.7669,3.751,0,0,0,0,0,3.7515,3.7543,3.7541,3.759,3.7596,3.7585,3.7599,3.7585,3.7594,3.7598,3.7596,3.7606,3.7629,3.7645,3.7666,3.7726,3.7727,3.7756,3.7766,3.7775,3.7781,3.7814,3.7827,3.7688,3.7688,3.7688,0,0,3.7553,3.7556,3.7575,3.7601,3.7607,3.7637,3.7589,3.7622,3.7643,3.7602,3.7645,3.7645,3.7654,3.7707,3.7731,3.7709,3.782,3.7782,3.7789,3.7791,3.7822,3.7835,3.7847,3.7692,3.7691,3.769,0,0,3.7638,3.7644,3.7686,3.7694,3.7704,3.7697,3.7707,3.7711,3.7709,3.7753,3.7723,3.7748,3.7789,3.7796,3.7806,3.7896,3.7872,3.7904,3.7957,3.799,3.8001,3.801,3.8043,3.8055,3.791,3.7911,3.7911,0,3.7684,3.7728,3.771,3.7746,3.7759,3.7725,3.7768,3.7775,3.7792,3.7801,3.7777,3.7828,3.7832,3.7887,3.791,3.7918,3.7929,3.7903,3.8001,3.801,3.8019,3.805,3.8062,3.7914,3.7914,3.7914,3.7913,0,3.7785,3.7816,3.7849,3.7868,3.7884,3.7923,3.7911,3.7929,3.7914,3.7909,3.7954,3.7958,3.7979,3.7991,3.7976,3.8045,3.8032,3.8005,3.7961,3.8036,3.8065,3.8076,3.792,3.7919,3.7917,3.7916,0,0,3.7903,3.7913,3.7925,3.7934,3.7944,3.7967,3.8005,3.8027,3.8044,3.8057,3.8088,3.8124,3.81,3.811,3.8096,3.8125,3.8197,3.8094,3.8094,3.8113,3.8273,3.8294,3.8308,3.8181,3.8183,3.8185,3.8273,0,3.7987,3.8053,3.8039,3.8104,3.8133,3.8102,3.8135,3.8144,3.8141,3.8165,3.8161,3.8187,3.8153,3.8159,3.8186,3.8183,3.8229,3.8176,3.8209,3.8211,3.8208,3.8322,3.8343,3.8426,3.8284,3.8286,3.8287,0,3.8094,3.8113,3.8181,3.8188,3.8199,3.823,3.825,3.8273,3.8283,3.8279,3.8292,3.8273,3.831,3.8267,3.8318,3.8283,3.8296,3.8296,3.8299,3.8301,3.8253,3.8327,3.8452,3.8464,3.8304,3.8303,3.8302,0,3.8174,3.8216,3.8263,3.8271,3.828,3.8302,3.8307,3.8315,3.833,3.8347,3.8357,3.8378,3.8389,3.8406,3.8393,3.8363,3.8447,3.8402,3.8444,3.8444,3.8462,3.8461,3.859,3.8471,3.8471,3.8471,3.8471,0,3.827,3.8313,3.8299,3.8328,3.8375,3.8359,3.8406,3.8406,3.8414,3.8442,3.8416,3.8443,3.8424,3.8449,3.8439,3.8484,3.8489,3.8486,3.8483,3.8489,3.8489,3.8496,3.849,3.8474,3.8473,3.8473,3.8472,0,3.8367,3.8359,3.8408,3.8414,3.8416,3.8451,3.8455,3.8481,3.8477,3.8513,3.852,3.8513,3.8541,3.853,3.856,3.8553,3.861,3.8599,3.8607,3.8604,3.8646,3.8642,3.8784,3.8802,3.8672,3.8673,3.8674,0,3.8428,3.8461,3.847,3.8488,3.8495,3.8523,3.8539,3.8524,3.8541,3.8557,3.8581,3.8608,3.8628,3.8674,3.8672,3.8694,3.8684,3.8732,3.8687,3.8692,3.8685,3.8683,3.8686,3.8741,3.8742,3.8744,3.8745,0,3.8538,3.8533,3.8557,3.8581,3.8601,3.8619,3.8634,3.8649,3.8635,3.8656,3.8685,3.8701,3.8733,3.8759,3.878,3.8783,3.8762,3.8759,3.877,3.8776,3.8779,3.8778,3.8631,3.8756,3.8755,3.8754,3.8753,3.8753,3.8619,3.8647,3.8659,3.8687,3.8697,3.8712,3.8738,3.8738,3.8762,3.8787,3.8777,3.8811,3.8821,3.8847,3.8854,3.888,3.8861,3.8877,3.8881,3.8885,3.8891,3.8775,3.8884,3.8884,3.8883,3.8883,3.8883,0,3.8728,3.8734,3.876,3.8783,3.8806,3.8785,3.8801,3.8821,3.8852,3.8864,3.8885,3.8919,3.8945,3.8945,3.8969,3.899,3.8981,3.8997,3.8995,3.8996,3.8906,3.8894,3.9004,3.9004,3.9004,3.9004,3.9004,3.9004,3.8787,3.8834,3.8831,3.8882,3.8888,3.8922,3.8933,3.8947,3.8957,3.8997,3.9019,3.9019,3.9026,3.9051,3.9074,3.9073,3.9083,3.9103,3.9099,3.9014,3.9002,3.8991,3.898,3.9106,3.9106,3.9187,3.9187,3.9188]},{"header":{"parameterUnit":"m.s-1","parameterCategory":1,"la1":30.2991,"la2":30.254,"lo1":-89.0895,"lo2":-89.0444,"dy":0.0017,"dx":0.0017,"nx":28,"ny":28,"refTime":"2025-12-01T03:00:00:Z","depth":0,"parameterNumber":3,"parameterNumberName":"V-component_of_WINDS"},"data":[0,0,0,0,0,0,0,0,0,0,0,0,0,0,0,0,0,0,0,0,0,0,0,0,0,0,0,0,0,0,0,0,0,0,0,0,0,0,0,0,0,0,0,0,0,0,0,0,0,0,0,0,0,0,0,0,0,0,-6.3916,-6.3917,0,-6.4009,-6.401,-6.4011,-6.3955,-6.3952,-6.3949,-6.3947,-6.4036,-6.4041,-6.4045,0,0,0,0,0,0,0,0,0,0,0,0,0,-6.3684,-6.3689,-6.3916,-6.3917,-6.3918,-6.4009,-6.401,-6.4011,-6.3955,-6.3952,-6.3949,-6.3946,-6.4034,-6.404,-6.4046,0,0,0,0,0,0,0,0,0,0,0,0,0,-6.3782,-6.369,-6.3916,-6.3901,-6.3901,-6.4009,-6.401,-6.4012,-6.3956,-6.3952,-6.3948,-6.3944,-6.4032,-6.404,-6.4047,-6.4172,0,0,-6.4069,-6.4072,0,0,0,0,0,0,0,0,-6.3776,-6.379,-6.3902,-6.3903,-6.3902,-6.3966,-6.3961,-6.4065,-6.3957,-6.3935,-6.3947,-6.3942,-6.4016,-6.4024,-6.405,-6.4176,-6.418,-6.407,-6.4074,-6.4077,-6.4079,0,0,0,0,0,0,0,-6.377,-6.3786,-6.3952,-6.3904,-6.3904,-6.3888,-6.3898,-6.398,-6.3996,-6.3936,-6.3933,-6.3945,-6.4015,-6.4043,-6.4052,-6.4181,-6.4069,-6.4076,-6.408,-6.4083,-6.4415,-6.4419,0,0,0,0,0,0,-6.3765,-6.3781,-6.3949,-6.3955,-6.3828,-6.3896,-6.3906,-6.395,-6.3995,-6.3999,-6.3948,-6.3942,-6.4033,-6.4043,-6.4055,-6.4205,-6.4077,-6.4084,-6.4088,-6.441,-6.4416,-6.4421,0,0,0,0,0,0,-6.376,-6.378,-6.3946,-6.3867,-6.3887,-6.3904,-6.3953,-6.3954,-6.3982,-6.4004,-6.4006,-6.3975,-6.403,-6.4044,-6.4144,-6.4207,-6.4087,-6.4094,-6.4405,-6.4412,-6.4418,-6.4506,0,0,0,0,0,0,-6.3754,-6.3779,-6.3828,-6.3869,-6.3891,-6.4035,-6.3957,-6.3958,-6.3996,-6.3988,-6.403,-6.4032,-6.4028,-6.4133,-6.4151,-6.4215,-6.41,-6.44,-6.4408,-6.4416,-6.4497,-6.4514,-6.4529,0,0,0,0,0,-6.3746,-6.3847,-6.3831,-6.3851,-6.3953,-6.4039,-6.4052,-6.4046,-6.4001,-6.4049,-6.4064,-6.4031,-6.4197,-6.4144,-6.4163,-6.423,-6.4396,-6.4406,-6.4415,-6.449,-6.4511,-6.4529,0,0,0,0,0,0,-6.381,-6.3852,-6.3834,-6.3952,-6.3993,-6.4029,-6.409,-6.4069,-6.4121,-6.4112,-6.4101,-6.411,-6.4214,-6.4232,-6.4172,-6.4354,-6.4289,-6.4303,-6.4339,-6.4359,-6.4375,-6.4368,-6.4106,0,0,0,0,0,-6.3839,-6.3907,-6.3939,-6.404,-6.4062,-6.4073,-6.411,-6.4103,-6.4143,-6.4159,-6.418,-6.4219,-6.428,-6.4321,-6.4378,-6.4499,-6.4507,-6.4555,-6.4571,-6.4584,-6.4597,-6.4663,-6.4684,-6.4453,-6.4453,-6.4453,0,0,-6.3898,-6.3929,-6.3972,-6.4054,-6.4084,-6.4154,-6.4087,-6.4163,-6.4214,-6.417,-6.4266,-6.4283,-6.4326,-6.4437,-6.4487,-6.4455,-6.4662,-6.4597,-6.4607,-6.4613,-6.4675,-6.4697,-6.4717,-6.446,-6.4459,-6.4458,0,0,-6.404,-6.4071,-6.4159,-6.4192,-6.424,-6.4247,-6.4268,-6.4309,-6.4319,-6.4416,-6.4385,-6.4444,-6.4549,-6.4581,-6.4611,-6.4768,-6.474,-6.4787,-6.487,-6.4935,-6.4953,-6.4969,-6.5025,-6.5046,-6.4799,-6.4799,-6.48,0,-6.4106,-6.4212,-6.4206,-6.4286,-6.4323,-6.4289,-6.4377,-6.4408,-6.4472,-6.4497,-6.4461,-6.4594,-6.462,-6.4738,-6.4777,-6.4802,-6.4826,-6.4782,-6.4951,-6.4968,-6.4982,-6.5036,-6.5057,-6.4805,-6.4804,-6.4804,-6.4803,0,-6.4291,-6.4364,-6.443,-6.4495,-6.4539,-6.4622,-6.4628,-6.4673,-6.4663,-6.4673,-6.4772,-6.4803,-6.4866,-6.4893,-6.4882,-6.5011,-6.499,-6.4953,-6.4887,-6.501,-6.506,-6.508,-6.4813,-6.4811,-6.4809,-6.4808,0,0,-6.4476,-6.4539,-6.4563,-6.4593,-6.4644,-6.47,-6.4781,-6.4846,-6.4885,-6.493,-6.4997,-6.5088,-6.5055,-6.5089,-6.5081,-6.5138,-6.5261,-6.5094,-6.5095,-6.5124,-6.5405,-6.5433,-6.5456,-6.5243,-6.5247,-6.525,-6.5401,0,-6.4622,-6.4767,-6.4766,-6.4899,-6.4967,-6.4937,-6.5007,-6.5046,-6.5058,-6.5116,-6.5128,-6.5193,-6.5144,-6.5165,-6.522,-6.5235,-6.5317,-6.5224,-6.5305,-6.5308,-6.5295,-6.5483,-6.5512,-6.5653,-6.5421,-6.5424,-6.5427,0,-6.4811,-6.4866,-6.5008,-6.505,-6.5079,-6.5143,-6.5202,-6.5259,-6.5301,-6.5306,-6.5346,-6.533,-6.5411,-6.5344,-6.5456,-6.5392,-6.5425,-6.5438,-6.5443,-6.545,-6.5374,-6.5495,-6.5698,-6.5719,-6.5457,-6.5455,-6.5453,0,-6.4933,-6.5041,-6.514,-6.5166,-6.5219,-6.5265,-6.5288,-6.5327,-6.5366,-6.5418,-6.5443,-6.5502,-6.5535,-6.558,-6.558,-6.5531,-6.5694,-6.5626,-6.5699,-6.5699,-6.5734,-6.5732,-6.5946,-6.5756,-6.5755,-6.5755,-6.5755,0,-6.5096,-6.5184,-6.5196,-6.5257,-6.5354,-6.5351,-6.5446,-6.5465,-6.5501,-6.5563,-6.5539,-6.5598,-6.5595,-6.5654,-6.5654,-6.5747,-6.5762,-6.5767,-6.5766,-6.577,-6.5769,-6.5791,-6.5781,-6.5761,-6.5759,-6.5758,-6.5757,0,-6.5247,-6.5259,-6.5365,-6.5407,-6.542,-6.549,-6.5524,-6.5582,-6.5592,-6.5672,-6.5691,-6.5707,-6.5776,-6.5781,-6.586,-6.586,-6.5973,-6.596,-6.5959,-6.5957,-6.603,-6.6023,-6.6265,-6.6297,-6.6086,-6.6088,-6.609,0,-6.5351,-6.5418,-6.5468,-6.551,-6.5537,-6.5604,-6.5645,-6.5645,-6.5688,-6.5743,-6.5793,-6.586,-6.5914,-6.6025,-6.6043,-6.6103,-6.6093,-6.6173,-6.6101,-6.6103,-6.6094,-6.609,-6.6097,-6.6187,-6.6189,-6.6191,-6.6193,0,-6.5534,-6.5537,-6.5598,-6.5662,-6.5712,-6.5761,-6.5807,-6.5842,-6.5847,-6.5897,-6.5968,-6.601,-6.6093,-6.6159,-6.6219,-6.624,-6.6218,-6.6216,-6.6236,-6.624,-6.6236,-6.624,-6.5997,-6.621,-6.6208,-6.6207,-6.6206,-6.6205,-6.5664,-6.5723,-6.5769,-6.5838,-6.5873,-6.5917,-6.5974,-6.5993,-6.6053,-6.6122,-6.6117,-6.6197,-6.6237,-6.6315,-6.6342,-6.6403,-6.6375,-6.6404,-6.6412,-6.6419,-6.6427,-6.6227,-6.6414,-6.6413,-6.6413,-6.6412,-6.6412,0,-6.5846,-6.5874,-6.5938,-6.6005,-6.6059,-6.6036,-6.6086,-6.6132,-6.6203,-6.6245,-6.6299,-6.6382,-6.6447,-6.6471,-6.6534,-6.6578,-6.6569,-6.6594,-6.6591,-6.6596,-6.6448,-6.6425,-6.6601,-6.6601,-6.6601,-6.66,-6.66,-6.66,-6.5947,-6.6046,-6.6055,-6.617,-6.6197,-6.6277,-6.6308,-6.6348,-6.6381,-6.6476,-6.6531,-6.6547,-6.6581,-6.6646,-6.6705,-6.671,-6.6734,-6.6764,-6.6765,-6.6626,-6.6607,-6.6589,-6.6567,-6.677,-6.677,-6.6908,-6.691,-6.6911]}]]